Printer-friendly version

IAU Minor Planet Center

Minor Planet Center

MPEC 2004-L55 : 2004 LZ5

The following Minor Planet Electronic Circular may be linked-to from your own Web pages, but must not otherwise be redistributed electronically.


Read MPEC 2004-L54 Read MPEC 2004-L56


M.P.E.C. 2004-L55                                Issued 2004 June 14, 11:13 UT

     The Minor Planet Electronic Circulars contain information on unusual
         minor planets and routine data on comets.  They are published
   on behalf of Commission 20 of the International Astronomical Union by the
          Minor Planet Center, Smithsonian Astrophysical Observatory,
                          Cambridge, MA 02138, U.S.A.

         Supported in part by the Steven and Michele Kirsch Foundation
             Prepared using the Tamkin Foundation Computer Network

                              MPC@CFA.HARVARD.EDU
          URL http://cfa-www.harvard.edu/iau/mpc.html  ISSN 1523-6714

                                   2004 LZ5

Observations:
     K04L05Z* C2004 06 13.32783 20 38 53.83 +01 01 53.2          18.7   EL055704
     K04L05Z  C2004 06 13.33783 20 38 53.04 +01 02 18.4          19.1   EL055704
     K04L05Z  C2004 06 13.34783 20 38 52.19 +01 02 43.9          19.3   EL055704
     K04L05Z  C2004 06 13.35782 20 38 51.41 +01 03 09.8          19.3   EL055704
     K04L05Z  C2004 06 13.36787 20 38 50.49 +01 03 36.3          20.0   EL055704
     K04L05Z  C2004 06 14.04455 20 37 58.80 +01 32 00.9                 EL055557
     K04L05Z 2C2004 06 14.04557 20 37 58.68 +01 32 04.5          18.6 R EL055012
     K04L05Z 2C2004 06 14.04731 20 37 58.64 +01 32 07.9          18.9 R EL055012
     K04L05Z  C2004 06 14.04804 20 37 58.42 +01 32 09.9                 EL055557
     K04L05Z  C2004 06 14.04979 20 37 58.35 +01 32 14.8                 EL055557
     K04L05Z 2C2004 06 14.05090 20 37 58.28 +01 32 16.6          18.6 R EL055012
     K04L05Z  C2004 06 14.05154 20 37 58.15 +01 32 19.2                 EL055557
     K04L05Z 2C2004 06 14.05264 20 37 58.13 +01 32 22.6          18.4 R EL055012
     K04L05Z  C2004 06 14.05329 20 37 58.05 +01 32 23.8                 EL055557
     K04L05Z 2C2004 06 14.05437 20 37 58.03 +01 32 26.3          18.7 R EL055012
     K04L05Z  C2004 06 14.21634 20 37 45.93 +01 39 15.3          19.3 R EL055734
     K04L05Z  C2004 06 14.21984 20 37 45.73 +01 39 21.7          19.2 R EL055734
     K04L05Z  C2004 06 14.22691 20 37 45.14 +01 39 41.8          19.3 R EL055734
     K04L05Z  C2004 06 14.23020 20 37 44.80 +01 39 47.4          18.9 R EL055734
     K04L05Z  C2004 06 14.37764 20 37 33.00 +01 45 59.5          19.6 R EL055854
     K04L05Z  C2004 06 14.37985 20 37 32.76 +01 46 05.9          19.5 R EL055854
     K04L05Z  C2004 06 14.38095 20 37 32.66 +01 46 07.6          19.6 R EL055854

Observer details:
012 Uccle.  Observer P. De Cat.  0.85-m f/2.5 Schmidt + CCD.
557 Ondrejov.  Observer P. Kusnirak.  0.65-m f/3.6 reflector + CCD.
704 Lincoln Laboratory ETS, New Mexico.  Observers M. Blythe, F. Shelly,
    M. Bezpalko, R. Huber, L. Manguso, D. Torres, R. Kracke, M. McCleary,
    H. Stange, A. Milner.  Measurers J. Stuart, R. Sayer, J. Evans, J. Kommers.
    1.0-m f/2.15 reflector + CCD.
734 Farpoint Observatory.  Observer G. Hug.  .3 Meter f/6 Schmidt-Cassegrain
    + CCD.
854 Sabino Canyon Observatory, Tucson.  Observer J. E. McGaha.  0.356-m f/10.0
    Schmidt-Cassegrain + CCD.

Orbital elements:
2004 LZ5
Epoch 2004 June 4.0 TT = JDT 2453160.5                  MPC
M  15.01023              (2000.0)            P               Q
n   0.24716287     Peri.  318.95414     -0.66821111     +0.60539832
a   2.5146675      Node   263.89150     -0.51669583     -0.79582524
e   0.5252190      Incl.   25.77823     -0.53527500     +0.01245284
P   3.99           H   18.5           G   0.15
From 22 observations 2004 June 13-14.

Ephemeris:
2004 LZ5                 a,e,i = 2.51, 0.53, 26                  q = 1.1939
Date    TT    R. A. (2000) Decl.     Delta      r     Elong.  Phase     V
2004 06 14    20 38.03   +01 30.3    0.555    1.427   128.1    34.1    19.4
2004 06 24    20 23.25   +07 48.1    0.580    1.486   135.3    28.8    19.4
2004 07 04    20 06.12   +12 29.3    0.622    1.547   140.4    24.7    19.6
2004 07 14    19 49.06   +15 26.7    0.680    1.611   142.7    22.5    19.8
2004 07 24    19 34.32   +16 49.9    0.755    1.677   142.0    21.9    20.1
2004 08 03    19 23.44   +17 00.6    0.846    1.743   139.0    22.5    20.4
2004 08 13    19 16.91   +16 22.6    0.950    1.810   134.5    23.5    20.8
2004 08 23    19 14.61   +15 16.1    1.066    1.877   129.3    24.7    21.1
2004 09 02    19 16.08   +13 56.8    1.194    1.944   123.7    25.6    21.5
2004 09 12    19 20.67   +12 35.1    1.331    2.010   117.9    26.3    21.8

Timothy B. Spahr             (C) Copyright 2004 MPC           M.P.E.C. 2004-L55

Read MPEC 2004-L54 Read MPEC 2004-L56


Our Web policy. Index to the CBAT/MPC/ICQ pages.


Valid HTML 4.01!